Regional Weather Roundup
Issued by NWS

Home | Current Version | Previous Version | Graphics & Text | Print | Product List | Glossary On
Versions: 1 2 3 4 5 6 7 8 9 10 11 12 13 14 15 16 17 18 19 20 21 22 23 24 25 26 27 28 29 30 31 32 33 34 35 36 37 38 39 40 41 42 43 44 45 46 47 48 49 50
056
ASUS43 KFSD 171910
RWRSD

WEATHER ROUNDUP FOR SOUTH DAKOTA
NATIONAL WEATHER SERVICE SIOUX FALLS SD
200 PM CDT THU AUG 17 2017

NOTE: "FAIR" INDICATES FEW OR NO CLOUDS BELOW 12,000 FEET WITH NO
SIGNIFICANT WEATHER AND/OR OBSTRUCTIONS TO VISIBILITY.


SDZ001>005-009-010-012>017-172000-
NORTHWEST AND NORTH CENTRAL SOUTH DAKOTA

CITY           SKY/WX    TMP DP  RH WIND       PRES   REMARKS
BUFFALO          N/A     81  48  31 NW8       29.87R
FAITH            N/A     87  49  26 VRB7      29.86F
MOBRIDGE       SUNNY     81  55  40 SE13      29.86F
$$

SDZ012>016-024>037-041>051-057-063-072>074-172000-
SOUTHWEST AND SOUTH CENTRAL SOUTH DAKOTA

CITY           SKY/WX    TMP DP  RH WIND       PRES   REMARKS
RAPID CTY ARPT MOSUNNY   86  43  22 CALM      29.90F
PIERRE         SUNNY     83  54  36 SE13      29.86F
CUSTER         SUNNY     80  38  22 W12G20    30.07F
ELLSWORTH AFB  SUNNY     88  44  21 NE5       29.90F
PHILIP         SUNNY     94  45  18 SW9G21    29.84F
PINE RIDGE     SUNNY     88  58  36 SW10      29.95F
SPEARFISH      LGT RAIN  82  46  28 N10G17    29.97S
WINNER         FAIR      86  55  34 S12       29.92F
$$

SDZ004>011-016>023-039-040-172000-
NORTHEAST SOUTH DAKOTA

CITY           SKY/WX    TMP DP  RH WIND       PRES   REMARKS
ABERDEEN       SUNNY     80  55  42 N3        29.89F
WATERTOWN      MOSUNNY   74  62  66 NW12      29.89S
BROOKINGS      MOSUNNY   74  62  66 NW17G24   29.89S
SISSETON         N/A     76  61  59 NW15      29.85S
$$

SDZ017-020-022-023-036>040-048>070-172000-
SOUTHEAST SOUTH DAKOTA

CITY           SKY/WX    TMP DP  RH WIND       PRES   REMARKS
SIOUX FALLS    MOSUNNY   78  61  55 NW17G26   29.89S
HURON          SUNNY     78  59  51 NW7       29.90F
CHAMBERLAIN    SUNNY     80  58  46 E6        29.92F
MITCHELL       SUNNY     78  59  51 NW7       29.91F
YANKTON        SUNNY     78  58  49 NW14      29.93S
$$

ABBREVIATIONS USED IN REMARKS
   TC - TEMPERATURE IN CELSIUS
  WCI - WIND CHILL INDEX
   HX - HEAT INDEX
  VSB - VISIBILITY





USA.gov is the U.S. government's official web portal to all federal, state and local government web resources and services.